TimePST,TemperatureF,Dew PointF,Humidity,Sea Level PressureIn,VisibilityMPH,Wind Direction,Wind SpeedMPH,Gust SpeedMPH,PrecipitationIn,Events,Conditions,WindDirDegrees,DateUTC
12:53 AM,55.9,54.0,93,29.93,0.2,Calm,Calm,-,N/A,Fog,Fog,0,2012-12-08 08:53:00
1:53 AM,55.0,54.0,96,29.93,0.2,Calm,Calm,-,N/A,Fog,Fog,0,2012-12-08 09:53:00
2:53 AM,54.0,53.1,97,29.93,0.2,Calm,Calm,-,N/A,Fog,Fog,0,2012-12-08 10:53:00
3:53 AM,53.1,52.0,96,29.92,0.2,Calm,Calm,-,N/A,Fog,Fog,0,2012-12-08 11:53:00
4:38 AM,53.6,51.8,94,29.92,0.2,Calm,Calm,-,N/A,Fog,Fog,0,2012-12-08 12:38:00
4:53 AM,53.1,52.0,96,29.93,0.2,ENE,3.5,-,N/A,Fog,Fog,60,2012-12-08 12:53:00
5:13 AM,53.6,51.8,94,29.93,0.2,ENE,3.5,-,N/A,Fog,Fog,70,2012-12-08 13:13:00
5:53 AM,53.1,52.0,96,29.94,0.2,East,4.6,-,N/A,Fog,Fog,80,2012-12-08 13:53:00
6:37 AM,51.8,51.8,100,29.96,0.5,Calm,Calm,-,N/A,Fog,Fog,0,2012-12-08 14:37:00
6:53 AM,53.1,51.1,93,29.96,0.5,Calm,Calm,-,N/A,Fog,Fog,0,2012-12-08 14:53:00
7:04 AM,53.6,51.8,94,29.96,0.2,East,3.5,-,N/A,Fog,Fog,80,2012-12-08 15:04:00
7:53 AM,53.1,52.0,96,29.96,0.2,East,3.5,-,0.01,Fog,Fog,80,2012-12-08 15:53:00
8:53 AM,54.0,53.1,97,29.98,0.5,Calm,Calm,-,N/A,Fog,Fog,0,2012-12-08 16:53:00
9:13 AM,55.4,53.6,94,29.99,1.0,Calm,Calm,-,N/A,,Overcast,0,2012-12-08 17:13:00
9:33 AM,55.4,53.6,94,29.99,3.0,Calm,Calm,-,N/A,,Overcast,0,2012-12-08 17:33:00
9:53 AM,55.0,53.1,93,29.99,4.0,Calm,Calm,-,N/A,,Overcast,0,2012-12-08 17:53:00
10:41 AM,57.2,53.6,88,29.98,4.0,Calm,Calm,-,N/A,,Overcast,0,2012-12-08 18:41:00
10:53 AM,57.0,53.1,87,29.97,4.0,Calm,Calm,-,N/A,,Overcast,0,2012-12-08 18:53:00
11:25 AM,59.0,53.6,82,29.96,5.0,West,3.5,-,N/A,,Haze,270,2012-12-08 19:25:00
11:53 AM,60.1,53.1,78,29.94,5.0,WSW,3.5,-,N/A,,Haze,240,2012-12-08 19:53:00
12:24 PM,60.8,53.6,77,29.94,5.0,Variable,6.9,-,N/A,,Haze,0,2012-12-08 20:24:00
12:38 PM,60.8,53.6,77,29.94,5.0,WSW,4.6,-,N/A,,Haze,250,2012-12-08 20:38:00
12:53 PM,60.1,53.1,78,29.93,5.0,SW,5.8,-,N/A,,Haze,230,2012-12-08 20:53:00
1:35 PM,60.8,53.6,77,29.92,4.0,WSW,6.9,-,N/A,,Haze,250,2012-12-08 21:35:00
1:53 PM,60.1,53.1,78,29.91,5.0,WSW,5.8,-,N/A,,Haze,250,2012-12-08 21:53:00
2:53 PM,60.1,53.1,78,29.90,5.0,Calm,Calm,-,N/A,,Haze,0,2012-12-08 22:53:00
3:53 PM,60.1,53.1,78,29.90,4.0,Calm,Calm,-,N/A,,Haze,0,2012-12-08 23:53:00
4:53 PM,57.9,53.1,84,29.91,3.0,Calm,Calm,-,N/A,,Haze,0,2012-12-09 00:53:00
5:53 PM,57.0,52.0,83,29.92,4.0,Calm,Calm,-,N/A,,Haze,0,2012-12-09 01:53:00
6:53 PM,55.9,52.0,87,29.93,3.0,Calm,Calm,-,N/A,,Clear,0,2012-12-09 02:53:00
7:18 PM,55.4,51.8,88,29.94,3.0,Calm,Calm,-,N/A,,Scattered Clouds,0,2012-12-09 03:18:00
7:26 PM,55.4,51.8,88,29.94,3.0,Calm,Calm,-,N/A,,Mostly Cloudy,0,2012-12-09 03:26:00
7:53 PM,57.0,53.1,87,29.94,3.0,Calm,Calm,-,N/A,,Mostly Cloudy,0,2012-12-09 03:53:00
8:53 PM,57.0,53.1,87,29.96,4.0,Calm,Calm,-,N/A,,Overcast,0,2012-12-09 04:53:00
9:53 PM,57.0,53.1,87,29.96,4.0,Calm,Calm,-,N/A,,Overcast,0,2012-12-09 05:53:00
10:53 PM,55.9,51.1,84,29.96,4.0,Calm,Calm,-,N/A,,Haze,0,2012-12-09 06:53:00
11:53 PM,55.0,52.0,89,29.96,3.0,Calm,Calm,-,N/A,,Overcast,0,2012-12-09 07:53:00
11:59 PM,55.4,51.8,88,29.97,2.5,East,3.5,-,N/A,,Overcast,100,2012-12-09 07:59:00